Time,TemperatureF,DewpointF,PressureIn,WindDirection,WindDirectionDegrees,WindSpeedMPH,WindSpeedGustMPH,Humidity,HourlyPrecipIn,Conditions,Clouds,dailyrainin,SoftwareType,DateUTC
2013-06-10 00:00:00,49.8,46.1,30.00,NNE,22,4.0,5.6,87,0.00,,---,0.00,VWS V14.01,2013-06-10 07:00:00,
2013-06-10 00:01:00,49.8,46.1,30.00,NNW,338,2.7,4.0,87,0.00,,---,0.00,VWS V14.01,2013-06-10 07:01:00,
2013-06-10 00:06:00,49.8,46.1,30.00,NW,315,5.4,8.7,87,0.00,,---,0.00,VWS V14.01,2013-06-10 07:06:00,
2013-06-10 00:10:00,49.8,46.1,30.00,NW,315,7.8,8.7,87,0.00,,---,0.00,VWS V14.01,2013-06-10 07:10:00,
2013-06-10 00:12:00,49.8,46.1,30.00,NNW,338,8.5,8.5,87,0.00,,---,0.00,VWS V14.01,2013-06-10 07:12:00,
2013-06-10 00:17:00,49.6,46.2,30.00,NNW,338,5.4,9.4,88,0.00,,---,0.00,VWS V14.01,2013-06-10 07:17:00,
2013-06-10 00:20:00,49.6,46.2,30.00,ESE,112,4.0,9.4,88,0.00,,---,0.00,VWS V14.01,2013-06-10 07:20:00,
2013-06-10 00:22:00,49.6,46.2,30.00,NNW,338,7.6,7.6,88,0.00,,---,0.00,VWS V14.01,2013-06-10 07:22:00,
2013-06-10 00:27:00,49.6,46.2,30.00,WNW,292,5.8,7.6,88,0.00,,---,0.00,VWS V14.01,2013-06-10 07:27:00,
2013-06-10 00:30:00,49.6,46.2,30.00,NNE,22,2.7,7.6,88,0.00,,---,0.00,VWS V14.01,2013-06-10 07:30:00,
2013-06-10 00:32:00,49.6,46.2,30.00,NNE,22,3.6,5.4,88,0.00,,---,0.00,VWS V14.01,2013-06-10 07:32:00,
2013-06-10 00:37:00,49.6,46.2,30.00,NW,315,4.3,8.1,88,0.00,,---,0.00,VWS V14.01,2013-06-10 07:37:00,
2013-06-10 00:40:00,49.6,46.2,30.00,NNW,338,1.3,8.1,88,0.00,,---,0.00,VWS V14.01,2013-06-10 07:40:00,
2013-06-10 00:43:00,49.6,46.2,30.00,WNW,292,3.4,8.5,88,0.00,,---,0.00,VWS V14.01,2013-06-10 07:43:00,
2013-06-10 00:48:00,49.5,46.1,30.00,NNW,338,2.9,8.5,88,0.00,,---,0.00,VWS V14.01,2013-06-10 07:48:00,
2013-06-10 00:50:00,49.5,46.1,30.00,WNW,292,7.6,8.5,88,0.00,,---,0.00,VWS V14.01,2013-06-10 07:50:00,
2013-06-10 00:53:00,49.5,46.1,30.00,North,0,5.4,9.4,88,0.00,,---,0.00,VWS V14.01,2013-06-10 07:53:00,
2013-06-10 00:58:00,49.5,46.1,29.97,WNW,292,3.6,9.4,88,0.00,,---,0.00,VWS V14.01,2013-06-10 07:58:00,
2013-06-10 01:00:00,49.5,46.1,29.97,WNW,292,6.0,9.4,88,0.00,,---,0.00,VWS V14.01,2013-06-10 08:00:00,
2013-06-10 01:04:00,49.5,46.1,29.97,NNW,338,4.3,6.0,88,0.00,,---,0.00,VWS V14.01,2013-06-10 08:04:00,
2013-06-10 01:09:00,49.3,46.2,29.97,WNW,292,5.6,6.3,89,0.00,,---,0.00,VWS V14.01,2013-06-10 08:09:00,
2013-06-10 01:10:00,49.3,46.2,29.97,NW,315,4.9,6.3,89,0.00,,---,0.00,VWS V14.01,2013-06-10 08:10:00,
2013-06-10 01:14:00,49.3,46.2,29.97,WNW,292,5.4,7.8,89,0.00,,---,0.00,VWS V14.01,2013-06-10 08:14:00,
2013-06-10 01:19:00,49.3,46.2,29.97,NNW,338,3.6,7.8,89,0.00,,---,0.00,VWS V14.01,2013-06-10 08:19:00,
2013-06-10 01:20:00,49.3,46.2,29.97,WNW,292,6.5,7.8,89,0.00,,---,0.00,VWS V14.01,2013-06-10 08:20:00,
2013-06-10 01:24:00,49.1,46.0,29.97,NNW,338,4.3,7.2,89,0.00,,---,0.00,VWS V14.01,2013-06-10 08:24:00,
2013-06-10 01:30:00,49.1,46.0,29.97,NNW,338,7.8,7.8,89,0.00,,---,0.00,VWS V14.01,2013-06-10 08:30:00,
2013-06-10 01:35:00,49.1,46.0,29.97,NW,315,3.6,8.5,89,0.00,,---,0.00,VWS V14.01,2013-06-10 08:35:00,
2013-06-10 01:40:00,49.1,46.0,29.97,ENE,68,5.6,5.6,89,0.00,,---,0.00,VWS V14.01,2013-06-10 08:40:00,
2013-06-10 01:45:00,48.9,46.1,29.97,NNW,338,2.9,5.6,90,0.00,,---,0.00,VWS V14.01,2013-06-10 08:45:00,
2013-06-10 01:50:00,49.1,46.3,29.97,WNW,292,3.6,4.9,90,0.00,,---,0.00,VWS V14.01,2013-06-10 08:50:00,
2013-06-10 01:56:00,49.1,46.3,29.97,NNW,338,3.8,4.9,90,0.00,,---,0.00,VWS V14.01,2013-06-10 08:56:00,
2013-06-10 02:00:00,49.1,46.3,29.97,WNW,292,5.6,6.0,90,0.00,,---,0.00,VWS V14.01,2013-06-10 09:00:00,
2013-06-10 02:02:00,49.1,46.3,29.97,NW,315,3.8,5.6,90,0.00,,---,0.00,VWS V14.01,2013-06-10 09:02:00,
2013-06-10 02:07:00,49.1,46.3,29.97,NW,315,6.5,6.5,90,0.00,,---,0.00,VWS V14.01,2013-06-10 09:07:00,
2013-06-10 02:10:00,49.1,46.3,29.97,WNW,292,2.9,7.8,90,0.00,,---,0.00,VWS V14.01,2013-06-10 09:10:00,
2013-06-10 02:12:00,48.9,46.1,29.97,NNW,338,4.3,4.3,90,0.00,,---,0.00,VWS V14.01,2013-06-10 09:12:00,
2013-06-10 02:17:00,48.9,46.1,29.97,NW,315,9.0,9.0,90,0.00,,---,0.00,VWS V14.01,2013-06-10 09:17:00,
2013-06-10 02:20:00,48.9,46.1,29.97,NW,315,5.4,9.0,90,0.00,,---,0.00,VWS V14.01,2013-06-10 09:20:00,
2013-06-10 02:23:00,48.9,46.1,29.97,NNE,22,3.6,7.2,90,0.00,,---,0.00,VWS V14.01,2013-06-10 09:23:00,
2013-06-10 02:28:00,48.9,46.1,29.97,NNW,338,7.8,7.8,90,0.00,,---,0.00,VWS V14.01,2013-06-10 09:28:00,
2013-06-10 02:30:00,48.9,46.1,29.97,NNW,338,6.0,7.8,90,0.00,,---,0.00,VWS V14.01,2013-06-10 09:30:00,
2013-06-10 02:33:00,48.9,46.1,29.97,NNW,338,2.9,6.0,90,0.00,,---,0.00,VWS V14.01,2013-06-10 09:33:00,
2013-06-10 02:38:00,48.7,45.9,29.97,NNW,338,7.4,7.4,90,0.00,,---,0.00,VWS V14.01,2013-06-10 09:38:00,
2013-06-10 02:40:00,48.7,45.9,29.97,WNW,292,3.4,7.4,90,0.00,,---,0.00,VWS V14.01,2013-06-10 09:40:00,
2013-06-10 02:43:00,48.7,45.9,29.97,NW,315,3.1,3.6,90,0.00,,---,0.00,VWS V14.01,2013-06-10 09:43:00,
2013-06-10 02:48:00,48.7,45.9,29.97,WNW,292,2.7,5.4,90,0.00,,---,0.00,VWS V14.01,2013-06-10 09:48:00,
2013-06-10 02:50:00,48.7,45.9,29.97,NNW,338,4.9,5.4,90,0.00,,---,0.00,VWS V14.01,2013-06-10 09:50:00,
2013-06-10 02:54:00,48.9,45.8,29.97,NNW,338,7.6,8.5,89,0.00,,---,0.00,VWS V14.01,2013-06-10 09:54:00,
2013-06-10 02:59:00,48.9,45.8,29.97,NNW,338,5.4,8.5,89,0.00,,---,0.00,VWS V14.01,2013-06-10 09:59:00,
2013-06-10 03:00:00,48.9,45.8,29.97,WNW,292,3.1,8.5,89,0.00,,---,0.00,VWS V14.01,2013-06-10 10:00:00,
2013-06-10 03:04:00,48.9,45.8,29.97,NNW,338,6.9,6.9,89,0.00,,---,0.00,VWS V14.01,2013-06-10 10:04:00,
2013-06-10 03:09:00,48.9,45.8,29.94,NNW,338,3.6,6.9,89,0.00,,---,0.00,VWS V14.01,2013-06-10 10:09:00,
2013-06-10 03:10:00,48.9,45.8,29.94,NNW,338,3.6,6.9,89,0.00,,---,0.00,VWS V14.01,2013-06-10 10:10:00,
2013-06-10 03:15:00,48.9,45.8,29.94,NNW,338,2.5,7.2,89,0.00,,---,0.00,VWS V14.01,2013-06-10 10:15:00,
2013-06-10 03:20:00,48.9,45.5,29.94,NNE,22,2.7,2.7,88,0.00,,---,0.00,VWS V14.01,2013-06-10 10:20:00,
2013-06-10 03:25:00,48.9,45.5,29.97,WNW,292,4.3,4.5,88,0.00,,---,0.00,VWS V14.01,2013-06-10 10:25:00,
2013-06-10 03:30:00,48.9,45.5,29.97,NNW,338,4.3,4.3,88,0.00,,---,0.00,VWS V14.01,2013-06-10 10:30:00,
2013-06-10 03:35:00,48.7,45.0,29.97,North,0,8.5,9.6,87,0.00,,---,0.00,VWS V14.01,2013-06-10 10:35:00,
2013-06-10 03:40:00,48.7,45.0,29.97,WNW,292,5.8,9.6,87,0.00,,---,0.00,VWS V14.01,2013-06-10 10:40:00,
2013-06-10 03:41:00,48.7,45.0,29.97,WNW,292,2.7,5.8,87,0.00,,---,0.00,VWS V14.01,2013-06-10 10:41:00,
2013-06-10 03:46:00,48.7,45.0,29.97,NNW,338,3.4,9.8,87,0.00,,---,0.00,VWS V14.01,2013-06-10 10:46:00,
2013-06-10 03:50:00,48.7,44.8,29.97,NNW,338,6.5,9.8,86,0.00,,---,0.00,VWS V14.01,2013-06-10 10:50:00,
2013-06-10 03:51:00,48.7,44.8,29.97,NW,315,3.8,6.5,86,0.00,,---,0.00,VWS V14.01,2013-06-10 10:51:00,
2013-06-10 03:57:00,48.6,44.6,29.97,NNW,338,2.9,9.8,86,0.00,,---,0.00,VWS V14.01,2013-06-10 10:57:00,
2013-06-10 04:00:00,48.6,44.6,29.97,NNW,338,2.7,9.8,86,0.00,,---,0.00,VWS V14.01,2013-06-10 11:00:00,
2013-06-10 04:02:00,48.6,44.6,29.97,NNW,338,2.7,8.1,86,0.00,,---,0.00,VWS V14.01,2013-06-10 11:02:00,
2013-06-10 04:07:00,48.6,44.6,29.97,WNW,292,3.8,8.1,86,0.00,,---,0.00,VWS V14.01,2013-06-10 11:07:00,
2013-06-10 04:10:00,48.6,44.6,29.94,NW,315,5.4,8.1,86,0.00,,---,0.00,VWS V14.01,2013-06-10 11:10:00,
2013-06-10 04:12:00,48.6,44.6,29.94,NNW,338,5.4,6.0,86,0.00,,---,0.00,VWS V14.01,2013-06-10 11:12:00,
2013-06-10 04:18:00,48.6,44.3,29.94,NNW,338,5.6,6.0,85,0.00,,---,0.00,VWS V14.01,2013-06-10 11:18:00,
2013-06-10 04:20:00,48.4,44.1,29.94,NNW,338,6.0,6.0,85,0.00,,---,0.00,VWS V14.01,2013-06-10 11:20:00,
2013-06-10 04:23:00,48.6,44.3,29.94,WNW,292,7.4,7.4,85,0.00,,---,0.00,VWS V14.01,2013-06-10 11:23:00,
2013-06-10 04:28:00,48.6,44.3,29.94,WNW,292,2.7,7.4,85,0.00,,---,0.00,VWS V14.01,2013-06-10 11:28:00,
2013-06-10 04:30:00,48.6,44.3,29.94,NNW,338,2.5,7.4,85,0.00,,---,0.00,VWS V14.01,2013-06-10 11:30:00,
2013-06-10 04:33:00,48.6,44.3,29.94,WNW,292,4.9,4.9,85,0.00,,---,0.00,VWS V14.01,2013-06-10 11:33:00,
2013-06-10 04:38:00,48.6,44.3,29.94,WNW,292,6.0,6.0,85,0.00,,---,0.00,VWS V14.01,2013-06-10 11:38:00,
2013-06-10 04:40:00,48.6,44.3,29.94,NW,315,5.4,6.0,85,0.00,,---,0.00,VWS V14.01,2013-06-10 11:40:00,
2013-06-10 04:43:00,48.6,44.0,29.94,North,0,3.8,7.4,84,0.00,,---,0.00,VWS V14.01,2013-06-10 11:43:00,
2013-06-10 04:49:00,48.6,44.0,29.94,NNW,338,2.5,7.4,84,0.00,,---,0.00,VWS V14.01,2013-06-10 11:49:00,
2013-06-10 04:50:00,48.6,44.0,29.94,WNW,292,6.5,7.4,84,0.00,,---,0.00,VWS V14.01,2013-06-10 11:50:00,
2013-06-10 04:54:00,48.6,44.0,29.94,NNW,338,3.1,6.5,84,0.00,,---,0.00,VWS V14.01,2013-06-10 11:54:00,
2013-06-10 04:59:00,48.6,44.0,29.94,NNW,338,2.9,7.6,84,0.00,,---,0.00,VWS V14.01,2013-06-10 11:59:00,
2013-06-10 05:00:00,48.6,44.0,29.94,NNW,338,3.6,7.6,84,0.00,,---,0.00,VWS V14.01,2013-06-10 12:00:00,
2013-06-10 05:04:00,48.4,43.8,29.94,NNW,338,2.9,6.3,84,0.00,,---,0.00,VWS V14.01,2013-06-10 12:04:00,
2013-06-10 05:09:00,48.4,43.8,29.94,WNW,292,2.5,6.3,84,0.00,,---,0.00,VWS V14.01,2013-06-10 12:09:00,
2013-06-10 05:10:00,48.4,43.8,29.94,NNW,338,3.6,6.3,84,0.00,,---,0.00,VWS V14.01,2013-06-10 12:10:00,
2013-06-10 05:15:00,48.4,43.8,29.94,NW,315,8.7,8.7,84,0.00,,---,0.00,VWS V14.01,2013-06-10 12:15:00,
2013-06-10 05:20:00,48.4,43.8,29.94,ENE,68,3.6,8.7,84,0.00,,---,0.00,VWS V14.01,2013-06-10 12:20:00,
2013-06-10 05:25:00,48.4,43.5,29.94,NW,315,2.5,6.0,83,0.00,,---,0.00,VWS V14.01,2013-06-10 12:25:00,
2013-06-10 05:30:00,48.4,43.5,29.94,WNW,292,4.0,4.0,83,0.00,,---,0.00,VWS V14.01,2013-06-10 12:30:00,
2013-06-10 05:36:00,48.2,43.3,29.94,NW,315,6.0,6.0,83,0.00,,---,0.00,VWS V14.01,2013-06-10 12:36:00,
2013-06-10 05:40:00,48.2,43.3,29.94,NNW,338,2.9,6.0,83,0.00,,---,0.00,VWS V14.01,2013-06-10 12:40:00,
2013-06-10 05:42:00,48.2,43.3,29.94,NNE,22,5.8,5.8,83,0.00,,---,0.00,VWS V14.01,2013-06-10 12:42:00,
2013-06-10 05:47:00,48.0,43.4,29.94,WNW,292,2.5,5.8,84,0.00,,---,0.00,VWS V14.01,2013-06-10 12:47:00,
2013-06-10 05:50:00,48.0,43.4,29.94,NNW,338,2.9,5.8,84,0.00,,---,0.00,VWS V14.01,2013-06-10 12:50:00,
2013-06-10 05:52:00,48.0,43.4,29.94,NW,315,3.4,3.4,84,0.00,,---,0.00,VWS V14.01,2013-06-10 12:52:00,
2013-06-10 05:57:00,48.0,43.4,29.94,NNW,338,4.0,4.7,84,0.00,,---,0.00,VWS V14.01,2013-06-10 12:57:00,
2013-06-10 06:00:00,48.0,43.4,29.94,NE,45,3.4,4.7,84,0.00,,---,0.00,VWS V14.01,2013-06-10 13:00:00,
2013-06-10 06:02:00,48.0,43.4,29.94,NW,315,3.8,6.7,84,0.00,,---,0.00,VWS V14.01,2013-06-10 13:02:00,
2013-06-10 06:08:00,48.0,43.4,29.94,NNW,338,2.5,6.7,84,0.00,,---,0.00,VWS V14.01,2013-06-10 13:08:00,
2013-06-10 06:10:00,48.0,43.4,29.94,NNE,22,2.5,6.7,84,0.00,,---,0.00,VWS V14.01,2013-06-10 13:10:00,
2013-06-10 06:13:00,48.0,43.4,29.94,NNE,22,2.9,2.9,84,0.00,,---,0.00,VWS V14.01,2013-06-10 13:13:00,
2013-06-10 06:18:00,48.0,43.4,29.94,NNW,338,4.3,4.3,84,0.00,,---,0.00,VWS V14.01,2013-06-10 13:18:00,
2013-06-10 06:20:00,48.0,43.7,29.94,NNW,338,4.0,4.3,85,0.00,,---,0.00,VWS V14.01,2013-06-10 13:20:00,
2013-06-10 06:23:00,48.0,43.7,29.94,NNW,338,3.1,4.0,85,0.00,,---,0.00,VWS V14.01,2013-06-10 13:23:00,
2013-06-10 06:29:00,48.0,43.7,29.94,WNW,292,3.4,4.0,85,0.00,,---,0.00,VWS V14.01,2013-06-10 13:29:00,
2013-06-10 06:30:00,48.0,43.7,29.94,WNW,292,3.4,4.0,85,0.00,,---,0.00,VWS V14.01,2013-06-10 13:30:00,
2013-06-10 06:34:00,48.0,43.7,29.94,WNW,292,3.4,3.8,85,0.00,,---,0.00,VWS V14.01,2013-06-10 13:34:00,
2013-06-10 06:39:00,48.0,43.7,29.94,WNW,292,3.6,3.8,85,0.00,,---,0.00,VWS V14.01,2013-06-10 13:39:00,
2013-06-10 06:40:00,48.0,43.7,29.94,WNW,292,3.6,3.8,85,0.00,,---,0.00,VWS V14.01,2013-06-10 13:40:00,
2013-06-10 06:44:00,48.2,43.9,29.94,NNE,22,2.0,3.6,85,0.00,,---,0.00,VWS V14.01,2013-06-10 13:44:00,
2013-06-10 06:49:00,48.2,43.9,29.94,WNW,292,2.5,3.6,85,0.00,,---,0.00,VWS V14.01,2013-06-10 13:49:00,
2013-06-10 06:50:00,48.2,43.9,29.94,WNW,292,2.5,3.6,85,0.00,,---,0.00,VWS V14.01,2013-06-10 13:50:00,
2013-06-10 06:55:00,48.4,44.1,29.94,WNW,292,3.6,3.6,85,0.00,,---,0.00,VWS V14.01,2013-06-10 13:55:00,
2013-06-10 07:00:00,48.6,44.3,29.94,NNW,338,0.9,3.8,85,0.00,,---,0.00,VWS V14.01,2013-06-10 14:00:00,
2013-06-10 07:05:00,48.7,44.4,29.94,NNW,338,2.7,2.7,85,0.00,,---,0.00,VWS V14.01,2013-06-10 14:05:00,
2013-06-10 07:10:00,48.9,44.6,29.94,WNW,292,2.2,3.1,85,0.00,,---,0.00,VWS V14.01,2013-06-10 14:10:00,
2013-06-10 07:15:00,49.1,44.8,29.94,NNW,338,2.5,4.7,85,0.00,,---,0.00,VWS V14.01,2013-06-10 14:15:00,
2013-06-10 07:20:00,49.5,45.2,29.94,NNW,338,2.5,3.6,85,0.00,,---,0.00,VWS V14.01,2013-06-10 14:20:00,
2013-06-10 07:26:00,49.6,45.3,29.94,NNW,338,3.8,3.8,85,0.00,,---,0.00,VWS V14.01,2013-06-10 14:26:00,
2013-06-10 07:30:00,49.8,45.5,29.94,NNW,338,3.6,3.8,85,0.00,,---,0.00,VWS V14.01,2013-06-10 14:30:00,
2013-06-10 07:32:00,49.8,45.5,29.94,WNW,292,2.9,3.6,85,0.00,,---,0.00,VWS V14.01,2013-06-10 14:32:00,
2013-06-10 07:37:00,50.0,45.4,29.94,NNW,338,1.6,4.3,84,0.00,,---,0.00,VWS V14.01,2013-06-10 14:37:00,
2013-06-10 07:40:00,50.2,45.5,29.94,SSE,158,1.3,4.3,84,0.00,,---,0.00,VWS V14.01,2013-06-10 14:40:00,
2013-06-10 07:42:00,50.2,45.5,29.94,NNW,338,4.9,4.9,84,0.00,,---,0.00,VWS V14.01,2013-06-10 14:42:00,
2013-06-10 07:47:00,50.5,45.6,29.94,NNW,338,2.9,5.8,83,0.00,,---,0.00,VWS V14.01,2013-06-10 14:47:00,
2013-06-10 07:50:00,50.7,45.8,29.94,NNE,22,2.5,6.0,83,0.00,,---,0.00,VWS V14.01,2013-06-10 14:50:00,
2013-06-10 07:53:00,50.7,45.4,29.94,North,0,6.0,6.0,82,0.00,,---,0.00,VWS V14.01,2013-06-10 14:53:00,
2013-06-10 07:58:00,51.1,45.5,29.94,NNW,338,3.4,6.3,81,0.00,,---,0.00,VWS V14.01,2013-06-10 14:58:00,
2013-06-10 08:00:00,51.1,45.5,29.94,NW,315,3.4,6.3,81,0.00,,---,0.00,VWS V14.01,2013-06-10 15:00:00,
2013-06-10 08:03:00,51.3,45.0,29.94,NNW,338,2.0,3.8,79,0.00,,---,0.00,VWS V14.01,2013-06-10 15:03:00,
2013-06-10 08:08:00,51.6,45.3,29.94,WNW,292,2.5,4.0,79,0.00,,---,0.00,VWS V14.01,2013-06-10 15:08:00,
2013-06-10 08:10:00,51.6,45.3,29.94,ENE,68,6.3,6.3,79,0.00,,---,0.00,VWS V14.01,2013-06-10 15:10:00,
2013-06-10 08:13:00,51.8,45.2,29.94,WNW,292,2.0,6.3,78,0.00,,---,0.00,VWS V14.01,2013-06-10 15:13:00,
2013-06-10 08:19:00,52.0,44.7,29.94,NW,315,3.8,6.7,76,0.00,,---,0.00,VWS V14.01,2013-06-10 15:19:00,
2013-06-10 08:20:00,52.0,44.7,29.94,NW,315,3.8,6.7,76,0.00,,---,0.00,VWS V14.01,2013-06-10 15:20:00,
2013-06-10 08:24:00,52.0,44.0,29.94,NNW,338,8.1,8.1,74,0.00,,---,0.00,VWS V14.01,2013-06-10 15:24:00,
2013-06-10 08:29:00,52.2,43.8,29.94,NNW,338,6.3,9.4,73,0.00,,---,0.00,VWS V14.01,2013-06-10 15:29:00,
2013-06-10 08:30:00,52.2,43.8,29.94,NNW,338,6.3,9.4,73,0.00,,---,0.00,VWS V14.01,2013-06-10 15:30:00,
2013-06-10 08:34:00,52.2,43.4,29.94,WNW,292,7.6,7.6,72,0.00,,---,0.00,VWS V14.01,2013-06-10 15:34:00,
2013-06-10 08:40:00,52.3,43.6,29.97,NW,315,8.1,10.7,72,0.00,,---,0.00,VWS V14.01,2013-06-10 15:40:00,
2013-06-10 08:45:00,52.3,43.6,29.97,WNW,292,5.8,8.1,72,0.00,,---,0.00,VWS V14.01,2013-06-10 15:45:00,
2013-06-10 08:50:00,52.5,43.8,29.97,WNW,292,6.3,6.3,72,0.00,,---,0.00,VWS V14.01,2013-06-10 15:50:00,
2013-06-10 08:56:00,52.5,43.8,29.94,NNW,338,6.3,6.3,72,0.00,,---,0.00,VWS V14.01,2013-06-10 15:56:00,
2013-06-10 09:00:00,52.3,43.6,29.94,NW,315,4.9,6.3,72,0.00,,---,0.00,VWS V14.01,2013-06-10 16:00:00,
2013-06-10 09:02:00,52.5,43.8,29.94,WNW,292,4.0,6.5,72,0.00,,---,0.00,VWS V14.01,2013-06-10 16:02:00,
2013-06-10 09:07:00,52.3,43.6,29.94,NNW,338,6.9,7.8,72,0.00,,---,0.00,VWS V14.01,2013-06-10 16:07:00,
2013-06-10 09:10:00,52.3,43.6,29.94,NNW,338,8.5,8.5,72,0.00,,---,0.00,VWS V14.01,2013-06-10 16:10:00,
2013-06-10 09:12:00,52.5,43.4,29.94,WNW,292,2.7,8.5,71,0.00,,---,0.00,VWS V14.01,2013-06-10 16:12:00,
2013-06-10 09:17:00,52.7,43.6,29.94,NNE,22,2.9,8.5,71,0.00,,---,0.00,VWS V14.01,2013-06-10 16:17:00,
2013-06-10 09:20:00,52.9,43.8,29.94,NNW,338,6.3,8.5,71,0.00,,---,0.00,VWS V14.01,2013-06-10 16:20:00,
2013-06-10 09:23:00,52.9,43.4,29.94,WNW,292,4.0,9.4,70,0.00,,---,0.00,VWS V14.01,2013-06-10 16:23:00,
2013-06-10 09:28:00,53.2,43.7,29.97,WNW,292,3.8,9.4,70,0.00,,---,0.00,VWS V14.01,2013-06-10 16:28:00,
2013-06-10 09:30:00,53.2,43.7,29.97,WNW,292,3.6,9.4,70,0.00,,---,0.00,VWS V14.01,2013-06-10 16:30:00,
2013-06-10 09:33:00,53.2,43.3,29.97,WNW,292,6.0,6.3,69,0.00,,---,0.00,VWS V14.01,2013-06-10 16:33:00,
2013-06-10 09:38:00,53.6,43.7,29.97,NNW,338,4.0,6.3,69,0.00,,---,0.00,VWS V14.01,2013-06-10 16:38:00,
2013-06-10 09:40:00,53.6,43.7,29.97,NW,315,5.8,6.3,69,0.00,,---,0.00,VWS V14.01,2013-06-10 16:40:00,
2013-06-10 09:44:00,53.6,43.3,29.97,NNW,338,2.7,8.1,68,0.00,,---,0.00,VWS V14.01,2013-06-10 16:44:00,
2013-06-10 09:49:00,53.8,43.1,29.97,WNW,292,3.4,9.8,67,0.00,,---,0.00,VWS V14.01,2013-06-10 16:49:00,
2013-06-10 09:50:00,53.8,43.1,29.97,WNW,292,3.8,9.8,67,0.00,,---,0.00,VWS V14.01,2013-06-10 16:50:00,
2013-06-10 09:54:00,54.1,43.0,29.97,WNW,292,3.6,9.8,66,0.00,,---,0.00,VWS V14.01,2013-06-10 16:54:00,
2013-06-10 09:59:00,54.5,43.4,29.97,NW,315,8.7,9.8,66,0.00,,---,0.00,VWS V14.01,2013-06-10 16:59:00,
2013-06-10 10:00:00,54.5,43.4,29.97,NW,315,8.7,9.8,66,0.00,,---,0.00,VWS V14.01,2013-06-10 17:00:00,
2013-06-10 10:05:00,54.9,43.3,29.97,NW,315,5.4,10.1,65,0.00,,---,0.00,VWS V14.01,2013-06-10 17:05:00,
2013-06-10 10:10:00,54.9,42.5,29.97,NW,315,9.8,9.8,63,0.00,,---,0.00,VWS V14.01,2013-06-10 17:10:00,
2013-06-10 10:15:00,54.9,42.1,29.97,WNW,292,8.5,9.8,62,0.00,,---,0.00,VWS V14.01,2013-06-10 17:15:00,
2013-06-10 10:20:00,54.9,41.7,29.97,North,0,4.7,10.3,61,0.00,,---,0.00,VWS V14.01,2013-06-10 17:20:00,
2013-06-10 10:25:00,54.9,41.7,29.97,NNW,338,10.5,11.9,61,0.00,,---,0.00,VWS V14.01,2013-06-10 17:25:00,
2013-06-10 10:30:00,54.9,41.7,29.97,NNW,338,3.4,11.9,61,0.00,,---,0.00,VWS V14.01,2013-06-10 17:30:00,
2013-06-10 10:31:00,54.9,41.7,29.97,WNW,292,3.6,3.6,61,0.00,,---,0.00,VWS V14.01,2013-06-10 17:31:00,
2013-06-10 10:36:00,55.0,41.8,29.97,NNE,22,4.3,13.2,61,0.00,,---,0.00,VWS V14.01,2013-06-10 17:36:00,
2013-06-10 10:40:00,55.2,42.4,29.97,NNW,338,8.1,13.2,62,0.00,,---,0.00,VWS V14.01,2013-06-10 17:40:00,
2013-06-10 10:41:00,55.0,42.3,29.97,WSW,248,7.6,8.1,62,0.00,,---,0.00,VWS V14.01,2013-06-10 17:41:00,
2013-06-10 10:46:00,55.4,42.6,29.97,WNW,292,12.3,12.3,62,0.00,,---,0.00,VWS V14.01,2013-06-10 17:46:00,
2013-06-10 10:50:00,55.4,42.2,29.97,NNW,338,3.6,12.8,61,0.00,,---,0.00,VWS V14.01,2013-06-10 17:50:00,
2013-06-10 10:52:00,55.6,41.9,29.97,North,0,5.6,8.5,60,0.00,,---,0.00,VWS V14.01,2013-06-10 17:52:00,
2013-06-10 10:57:00,55.6,41.5,29.97,WNW,292,6.3,8.7,59,0.00,,---,0.00,VWS V14.01,2013-06-10 17:57:00,
2013-06-10 11:00:00,55.8,41.7,29.97,WNW,292,3.1,8.7,59,0.00,,---,0.00,VWS V14.01,2013-06-10 18:00:00,
2013-06-10 11:02:00,55.8,41.7,29.97,WNW,292,3.6,6.0,59,0.00,,---,0.00,VWS V14.01,2013-06-10 18:02:00,
2013-06-10 11:07:00,56.1,41.6,29.97,NNW,338,4.3,6.5,58,0.00,,---,0.00,VWS V14.01,2013-06-10 18:07:00,
2013-06-10 11:10:00,56.1,41.6,29.97,NNW,338,4.0,6.5,58,0.00,,---,0.00,VWS V14.01,2013-06-10 18:10:00,
2013-06-10 11:12:00,56.3,41.7,29.97,NNW,338,5.8,5.8,58,0.00,,---,0.00,VWS V14.01,2013-06-10 18:12:00,
2013-06-10 11:18:00,56.3,41.7,29.97,WNW,292,2.7,6.3,58,0.00,,---,0.00,VWS V14.01,2013-06-10 18:18:00,
2013-06-10 11:20:00,56.3,41.7,29.97,NW,315,3.6,6.3,58,0.00,,---,0.00,VWS V14.01,2013-06-10 18:20:00,
2013-06-10 11:23:00,56.3,42.2,29.97,NNW,338,3.8,8.1,59,0.00,,---,0.00,VWS V14.01,2013-06-10 18:23:00,
2013-06-10 11:28:00,56.1,42.0,29.97,WNW,292,7.6,9.6,59,0.00,,---,0.00,VWS V14.01,2013-06-10 18:28:00,
2013-06-10 11:30:00,55.9,41.8,29.97,NNW,338,10.1,10.1,59,0.00,,---,0.00,VWS V14.01,2013-06-10 18:30:00,
2013-06-10 11:33:00,55.9,42.7,29.97,WNW,292,4.5,10.3,61,0.00,,---,0.00,VWS V14.01,2013-06-10 18:33:00,
2013-06-10 11:38:00,55.8,43.0,29.97,WNW,292,12.3,12.3,62,0.00,,---,0.00,VWS V14.01,2013-06-10 18:38:00,
2013-06-10 11:40:00,55.8,43.0,29.97,NW,315,6.5,12.3,62,0.00,,---,0.00,VWS V14.01,2013-06-10 18:40:00,
2013-06-10 11:44:00,55.4,43.0,29.97,WNW,292,7.4,12.8,63,0.00,,---,0.00,VWS V14.01,2013-06-10 18:44:00,
2013-06-10 11:49:00,55.6,43.6,29.97,WNW,292,3.4,12.8,64,0.00,,---,0.00,VWS V14.01,2013-06-10 18:49:00,
2013-06-10 11:50:00,55.6,43.6,29.97,WNW,292,3.4,12.8,64,0.00,,---,0.00,VWS V14.01,2013-06-10 18:50:00,
2013-06-10 11:54:00,55.8,43.8,29.97,WNW,292,5.8,12.1,64,0.00,,---,0.00,VWS V14.01,2013-06-10 18:54:00,
2013-06-10 11:59:00,55.4,43.4,29.97,NW,315,7.8,12.1,64,0.00,,---,0.00,VWS V14.01,2013-06-10 18:59:00,
2013-06-10 12:00:00,55.4,43.4,29.97,NW,315,7.8,12.1,64,0.00,,---,0.00,VWS V14.01,2013-06-10 19:00:00,
2013-06-10 12:05:00,55.4,43.4,29.97,WNW,292,9.8,9.8,64,0.00,,---,0.00,VWS V14.01,2013-06-10 19:05:00,
2013-06-10 12:10:00,55.6,43.6,29.97,NNW,338,8.7,8.7,64,0.00,,---,0.00,VWS V14.01,2013-06-10 19:10:00,
2013-06-10 12:15:00,55.4,43.0,29.97,WNW,292,8.5,12.1,63,0.00,,---,0.00,VWS V14.01,2013-06-10 19:15:00,
2013-06-10 12:20:00,55.8,43.8,29.97,WNW,292,3.8,6.0,64,0.00,,---,0.00,VWS V14.01,2013-06-10 19:20:00,
2013-06-10 12:25:00,55.6,42.8,29.97,WNW,292,7.8,8.7,62,0.00,,---,0.00,VWS V14.01,2013-06-10 19:25:00,
2013-06-10 12:30:00,55.6,43.2,29.97,NNW,338,5.6,9.4,63,0.00,,---,0.00,VWS V14.01,2013-06-10 19:30:00,
2013-06-10 12:31:00,55.6,43.2,29.97,WNW,292,7.6,7.6,63,0.00,,---,0.00,VWS V14.01,2013-06-10 19:31:00,
2013-06-10 12:36:00,55.6,43.2,29.97,NW,315,8.7,8.7,63,0.00,,---,0.00,VWS V14.01,2013-06-10 19:36:00,
2013-06-10 12:40:00,55.8,43.4,29.97,WNW,292,5.8,8.7,63,0.00,,---,0.00,VWS V14.01,2013-06-10 19:40:00,
2013-06-10 12:41:00,55.8,43.0,29.97,WNW,292,10.7,10.7,62,0.00,,---,0.00,VWS V14.01,2013-06-10 19:41:00,
2013-06-10 12:47:00,55.6,43.2,29.97,WNW,292,8.7,12.8,63,0.00,,---,0.00,VWS V14.01,2013-06-10 19:47:00,
2013-06-10 12:50:00,55.6,43.2,29.97,WNW,292,7.6,12.8,63,0.00,,---,0.00,VWS V14.01,2013-06-10 19:50:00,
2013-06-10 12:52:00,55.4,43.0,29.97,NNW,338,7.6,7.6,63,0.00,,---,0.00,VWS V14.01,2013-06-10 19:52:00,
2013-06-10 12:57:00,55.4,43.4,29.97,NNW,338,5.6,7.6,64,0.00,,---,0.00,VWS V14.01,2013-06-10 19:57:00,
2013-06-10 13:00:00,55.6,43.6,29.97,NNE,22,7.4,7.6,64,0.00,,---,0.00,VWS V14.01,2013-06-10 20:00:00,
2013-06-10 13:02:00,55.6,44.0,29.97,NNW,338,12.3,12.3,65,0.00,,---,0.00,VWS V14.01,2013-06-10 20:02:00,
2013-06-10 13:08:00,55.9,44.4,29.97,WNW,292,5.8,12.3,65,0.00,,---,0.00,VWS V14.01,2013-06-10 20:08:00,
2013-06-10 13:10:00,55.8,43.8,29.97,NNW,338,8.1,12.3,64,0.00,,---,0.00,VWS V14.01,2013-06-10 20:10:00,
2013-06-10 13:13:00,55.4,43.4,29.97,WNW,292,10.5,10.7,64,0.00,,---,0.00,VWS V14.01,2013-06-10 20:13:00,
2013-06-10 13:18:00,55.4,43.4,29.97,NW,315,10.7,10.7,64,0.00,,---,0.00,VWS V14.01,2013-06-10 20:18:00,
2013-06-10 13:20:00,55.6,44.0,29.97,NNW,338,8.5,10.7,65,0.00,,---,0.00,VWS V14.01,2013-06-10 20:20:00,
2013-06-10 13:23:00,55.8,44.2,29.97,WNW,292,8.1,10.7,65,0.00,,---,0.00,VWS V14.01,2013-06-10 20:23:00,
2013-06-10 13:29:00,55.9,44.4,29.97,WNW,292,7.6,10.7,65,0.00,,---,0.00,VWS V14.01,2013-06-10 20:29:00,
2013-06-10 13:30:00,55.8,43.8,29.97,NNW,338,12.3,12.3,64,0.00,,---,0.00,VWS V14.01,2013-06-10 20:30:00,
2013-06-10 13:34:00,55.8,43.8,29.97,WNW,292,6.3,12.3,64,0.00,,---,0.00,VWS V14.01,2013-06-10 20:34:00,
2013-06-10 13:39:00,55.4,43.8,29.97,WNW,292,6.0,14.3,65,0.00,,---,0.00,VWS V14.01,2013-06-10 20:39:00,
2013-06-10 13:40:00,55.4,43.8,29.97,WNW,292,6.0,14.3,65,0.00,,---,0.00,VWS V14.01,2013-06-10 20:40:00,
2013-06-10 13:44:00,55.8,44.6,29.97,WNW,292,13.0,13.0,66,0.00,,---,0.00,VWS V14.01,2013-06-10 20:44:00,
2013-06-10 13:50:00,55.8,45.0,29.97,NNW,338,8.5,13.0,67,0.00,,---,0.00,VWS V14.01,2013-06-10 20:50:00,
2013-06-10 13:55:00,55.4,44.6,29.97,WNW,292,6.7,8.7,67,0.00,,---,0.00,VWS V14.01,2013-06-10 20:55:00,
2013-06-10 14:00:00,55.6,45.2,29.97,NNW,338,9.6,9.6,68,0.00,,---,0.00,VWS V14.01,2013-06-10 21:00:00,
2013-06-10 14:06:00,55.8,45.4,29.97,WNW,292,6.5,10.1,68,0.00,,---,0.00,VWS V14.01,2013-06-10 21:06:00,
2013-06-10 14:10:00,55.6,45.2,29.97,NNW,338,3.4,12.5,68,0.00,,---,0.00,VWS V14.01,2013-06-10 21:10:00,
2013-06-10 14:11:00,55.8,45.4,29.97,WNW,292,6.5,6.5,68,0.00,,---,0.00,VWS V14.01,2013-06-10 21:11:00,
2013-06-10 14:16:00,55.9,45.5,29.97,WNW,292,5.6,11.0,68,0.00,,---,0.00,VWS V14.01,2013-06-10 21:16:00,
2013-06-10 14:20:00,55.9,45.2,29.97,WNW,292,10.5,12.3,67,0.00,,---,0.00,VWS V14.01,2013-06-10 21:20:00,
2013-06-10 14:21:00,55.8,45.0,29.97,NNW,338,8.1,10.5,67,0.00,,---,0.00,VWS V14.01,2013-06-10 21:21:00,
2013-06-10 14:27:00,55.8,45.0,29.97,NW,315,8.5,10.5,67,0.00,,---,0.00,VWS V14.01,2013-06-10 21:27:00,
2013-06-10 14:30:00,55.9,45.5,29.97,WNW,292,4.9,10.5,68,0.00,,---,0.00,VWS V14.01,2013-06-10 21:30:00,
2013-06-10 14:32:00,55.9,45.5,29.97,WNW,292,6.5,6.5,68,0.00,,---,0.00,VWS V14.01,2013-06-10 21:32:00,
2013-06-10 14:37:00,55.9,45.5,29.97,WNW,292,6.5,11.4,68,0.00,,---,0.00,VWS V14.01,2013-06-10 21:37:00,
2013-06-10 14:40:00,56.1,45.7,29.94,NNW,338,9.6,11.4,68,0.00,,---,0.00,VWS V14.01,2013-06-10 21:40:00,
2013-06-10 14:42:00,55.9,45.5,29.94,WNW,292,5.6,12.3,68,0.00,,---,0.00,VWS V14.01,2013-06-10 21:42:00,
2013-06-10 14:48:00,56.3,45.9,29.94,NNE,22,13.0,13.0,68,0.00,,---,0.00,VWS V14.01,2013-06-10 21:48:00,
2013-06-10 14:50:00,56.3,45.9,29.94,WNW,292,6.5,13.0,68,0.00,,---,0.00,VWS V14.01,2013-06-10 21:50:00,
2013-06-10 14:53:00,56.1,45.3,29.94,WNW,292,11.4,12.1,67,0.00,,---,0.00,VWS V14.01,2013-06-10 21:53:00,
2013-06-10 14:58:00,55.9,45.5,29.94,NW,315,7.2,12.1,68,0.00,,---,0.00,VWS V14.01,2013-06-10 21:58:00,
2013-06-10 15:00:00,56.1,45.7,29.94,WNW,292,8.7,12.1,68,0.00,,---,0.00,VWS V14.01,2013-06-10 22:00:00,
2013-06-10 15:04:00,56.1,45.3,29.94,WNW,292,10.3,12.5,67,0.00,,---,0.00,VWS V14.01,2013-06-10 22:04:00,
2013-06-10 15:09:00,56.3,45.9,29.94,NW,315,10.1,12.5,68,0.00,,---,0.00,VWS V14.01,2013-06-10 22:09:00,
2013-06-10 15:10:00,56.3,45.9,29.94,WNW,292,7.4,12.5,68,0.00,,---,0.00,VWS V14.01,2013-06-10 22:10:00,
2013-06-10 15:14:00,56.7,46.6,29.94,NW,315,7.6,8.1,69,0.00,,---,0.00,VWS V14.01,2013-06-10 22:14:00,
2013-06-10 15:19:00,56.7,45.8,29.94,NNW,338,6.0,11.4,67,0.00,,---,0.00,VWS V14.01,2013-06-10 22:19:00,
2013-06-10 15:20:00,56.7,45.8,29.94,NNW,338,6.0,11.4,67,0.00,,---,0.00,VWS V14.01,2013-06-10 22:20:00,
2013-06-10 15:25:00,56.8,46.4,29.94,WNW,292,5.8,7.8,68,0.00,,---,0.00,VWS V14.01,2013-06-10 22:25:00,
2013-06-10 15:30:00,56.7,46.2,29.94,WNW,292,8.5,8.5,68,0.00,,---,0.00,VWS V14.01,2013-06-10 22:30:00,
2013-06-10 15:35:00,56.7,46.2,29.94,WNW,292,3.4,8.5,68,0.00,,---,0.00,VWS V14.01,2013-06-10 22:35:00,
2013-06-10 15:40:00,56.8,46.4,29.94,NNW,338,8.7,8.7,68,0.00,,---,0.00,VWS V14.01,2013-06-10 22:40:00,
2013-06-10 15:41:00,56.8,46.4,29.94,WNW,292,9.8,9.8,68,0.00,,---,0.00,VWS V14.01,2013-06-10 22:41:00,
2013-06-10 15:46:00,56.8,46.4,29.94,NNW,338,10.3,10.3,68,0.00,,---,0.00,VWS V14.01,2013-06-10 22:46:00,
2013-06-10 15:50:00,57.2,46.4,29.94,NW,315,13.2,13.2,67,0.00,,---,0.00,VWS V14.01,2013-06-10 22:50:00,
2013-06-10 15:51:00,57.2,46.4,29.94,NNW,338,3.6,13.2,67,0.00,,---,0.00,VWS V14.01,2013-06-10 22:51:00,
2013-06-10 15:56:00,57.6,46.3,29.94,NW,315,5.8,13.2,66,0.00,,---,0.00,VWS V14.01,2013-06-10 22:56:00,
2013-06-10 16:00:00,57.4,46.1,29.94,North,0,8.7,13.2,66,0.00,,---,0.00,VWS V14.01,2013-06-10 23:00:00,
2013-06-10 16:01:00,57.2,45.6,29.94,NNW,338,7.4,8.7,65,0.00,,---,0.00,VWS V14.01,2013-06-10 23:01:00,
2013-06-10 16:07:00,57.2,45.6,29.94,NW,315,5.8,12.1,65,0.00,,---,0.00,VWS V14.01,2013-06-10 23:07:00,
2013-06-10 16:10:00,57.4,46.1,29.94,WNW,292,5.4,12.1,66,0.00,,---,0.00,VWS V14.01,2013-06-10 23:10:00,
2013-06-10 16:12:00,57.4,45.7,29.94,WNW,292,6.5,6.5,65,0.00,,---,0.00,VWS V14.01,2013-06-10 23:12:00,
2013-06-10 16:17:00,57.6,46.3,29.94,WNW,292,7.4,8.1,66,0.00,,---,0.00,VWS V14.01,2013-06-10 23:17:00,
2013-06-10 16:20:00,57.4,45.7,29.94,WNW,292,5.8,8.1,65,0.00,,---,0.00,VWS V14.01,2013-06-10 23:20:00,
2013-06-10 16:22:00,57.4,45.7,29.94,NNW,338,8.1,8.1,65,0.00,,---,0.00,VWS V14.01,2013-06-10 23:22:00,
2013-06-10 16:27:00,57.7,46.5,29.94,NW,315,7.6,8.1,66,0.00,,---,0.00,VWS V14.01,2013-06-10 23:27:00,
2013-06-10 16:30:00,57.7,46.1,29.94,NNW,338,8.7,8.7,65,0.00,,---,0.00,VWS V14.01,2013-06-10 23:30:00,
2013-06-10 16:33:00,57.7,46.1,29.94,WNW,292,9.4,9.4,65,0.00,,---,0.00,VWS V14.01,2013-06-10 23:33:00,
2013-06-10 16:38:00,57.9,45.8,29.94,WNW,292,9.6,9.6,64,0.00,,---,0.00,VWS V14.01,2013-06-10 23:38:00,
2013-06-10 16:40:00,57.9,45.8,29.94,NNW,338,4.9,9.6,64,0.00,,---,0.00,VWS V14.01,2013-06-10 23:40:00,
2013-06-10 16:43:00,58.1,45.6,29.94,WNW,292,6.3,10.1,63,0.00,,---,0.00,VWS V14.01,2013-06-10 23:43:00,
2013-06-10 16:49:00,57.9,45.0,29.94,WNW,292,11.0,11.0,62,0.00,,---,0.00,VWS V14.01,2013-06-10 23:49:00,
2013-06-10 16:50:00,57.9,45.0,29.94,NW,315,11.9,11.9,62,0.00,,---,0.00,VWS V14.01,2013-06-10 23:50:00,
2013-06-10 16:54:00,58.3,45.8,29.94,NW,315,7.2,11.9,63,0.00,,---,0.00,VWS V14.01,2013-06-10 23:54:00,
2013-06-10 16:59:00,58.5,45.5,29.94,WNW,292,4.0,12.5,62,0.00,,---,0.00,VWS V14.01,2013-06-10 23:59:00,
2013-06-10 17:00:00,58.5,45.5,29.94,WNW,292,4.0,12.5,62,0.00,,---,0.00,VWS V14.01,2013-06-11 00:00:00,
2013-06-10 17:04:00,58.1,44.7,29.94,WNW,292,5.6,10.1,61,0.00,,---,0.00,VWS V14.01,2013-06-11 00:04:00,
2013-06-10 17:09:00,58.5,45.5,29.94,NNW,338,7.6,10.1,62,0.00,,---,0.00,VWS V14.01,2013-06-11 00:09:00,
2013-06-10 17:10:00,58.5,45.5,29.94,NNW,338,7.6,10.1,62,0.00,,---,0.00,VWS V14.01,2013-06-11 00:10:00,
2013-06-10 17:15:00,58.1,45.6,29.94,NNW,338,6.0,8.7,63,0.00,,---,0.00,VWS V14.01,2013-06-11 00:15:00,
2013-06-10 17:20:00,58.5,45.9,29.94,NNW,338,9.2,9.2,63,0.00,,---,0.00,VWS V14.01,2013-06-11 00:20:00,
2013-06-10 17:25:00,58.1,45.6,29.94,NNE,22,7.4,10.1,63,0.00,,---,0.00,VWS V14.01,2013-06-11 00:25:00,
2013-06-10 17:30:00,57.9,45.8,29.94,NNW,338,6.3,6.3,64,0.00,,---,0.00,VWS V14.01,2013-06-11 00:30:00,
2013-06-10 17:36:00,58.1,46.0,29.94,WNW,292,6.3,8.1,64,0.00,,---,0.00,VWS V14.01,2013-06-11 00:36:00,
2013-06-10 17:40:00,58.3,46.2,29.94,NNW,338,5.8,8.1,64,0.00,,---,0.00,VWS V14.01,2013-06-11 00:40:00,
2013-06-10 17:42:00,58.5,46.8,29.94,WNW,292,6.0,6.0,65,0.00,,---,0.00,VWS V14.01,2013-06-11 00:42:00,
2013-06-10 17:47:00,58.3,46.2,29.94,NNW,338,5.4,8.1,64,0.00,,---,0.00,VWS V14.01,2013-06-11 00:47:00,
2013-06-10 17:50:00,58.5,46.3,29.94,WNW,292,6.3,8.7,64,0.00,,---,0.00,VWS V14.01,2013-06-11 00:50:00,
2013-06-10 17:52:00,58.6,46.5,29.94,WNW,292,8.1,8.1,64,0.00,,---,0.00,VWS V14.01,2013-06-11 00:52:00,
2013-06-10 17:57:00,58.8,45.8,29.94,NNW,338,5.6,9.8,62,0.00,,---,0.00,VWS V14.01,2013-06-11 00:57:00,
2013-06-10 18:00:00,58.8,45.8,29.94,NW,315,6.3,10.1,62,0.00,,---,0.00,VWS V14.01,2013-06-11 01:00:00,
2013-06-10 18:02:00,59.4,45.9,29.94,NNE,22,5.6,6.3,61,0.00,,---,0.00,VWS V14.01,2013-06-11 01:02:00,
2013-06-10 18:08:00,59.7,44.9,29.94,WNW,292,11.9,11.9,58,0.00,,---,0.00,VWS V14.01,2013-06-11 01:08:00,
2013-06-10 18:10:00,59.9,45.5,29.94,WNW,292,4.9,11.9,59,0.00,,---,0.00,VWS V14.01,2013-06-11 01:10:00,
2013-06-10 18:13:00,60.6,46.7,29.94,NNW,338,8.1,8.1,60,0.00,,---,0.00,VWS V14.01,2013-06-11 01:13:00,
2013-06-10 18:18:00,60.1,44.8,29.94,NNE,22,5.6,8.1,57,0.00,,---,0.00,VWS V14.01,2013-06-11 01:18:00,
2013-06-10 18:20:00,60.4,45.6,29.94,NW,315,5.6,8.1,58,0.00,,---,0.00,VWS V14.01,2013-06-11 01:20:00,
2013-06-10 18:23:00,60.1,44.3,29.94,NNW,338,7.8,12.8,56,0.00,,---,0.00,VWS V14.01,2013-06-11 01:23:00,
2013-06-10 18:29:00,59.5,44.3,29.94,WNW,292,6.0,12.8,57,0.00,,---,0.00,VWS V14.01,2013-06-11 01:29:00,
2013-06-10 18:30:00,59.5,44.3,29.94,NNW,338,6.3,12.8,57,0.00,,---,0.00,VWS V14.01,2013-06-11 01:30:00,
2013-06-10 18:34:00,58.5,43.3,29.94,WNW,292,6.0,6.5,57,0.00,,---,0.00,VWS V14.01,2013-06-11 01:34:00,
2013-06-10 18:39:00,58.1,44.3,29.91,WNW,292,4.9,8.7,60,0.00,,---,0.00,VWS V14.01,2013-06-11 01:39:00,
2013-06-10 18:40:00,58.1,44.3,29.91,WNW,292,7.6,8.7,60,0.00,,---,0.00,VWS V14.01,2013-06-11 01:40:00,
2013-06-10 18:44:00,58.5,44.6,29.91,NNW,338,7.6,7.6,60,0.00,,---,0.00,VWS V14.01,2013-06-11 01:44:00,
2013-06-10 18:50:00,57.9,44.1,29.91,WNW,292,10.7,10.7,60,0.00,,---,0.00,VWS V14.01,2013-06-11 01:50:00,
2013-06-10 18:55:00,57.7,44.0,29.91,WNW,292,6.5,10.7,60,0.00,,---,0.00,VWS V14.01,2013-06-11 01:55:00,
2013-06-10 19:00:00,58.1,44.7,29.91,NNW,338,5.8,5.8,61,0.00,,---,0.00,VWS V14.01,2013-06-11 02:00:00,
2013-06-10 19:05:00,57.9,44.6,29.91,WNW,292,7.6,7.6,61,0.00,,---,0.00,VWS V14.01,2013-06-11 02:05:00,
2013-06-10 19:10:00,58.3,44.9,29.91,WNW,292,4.7,7.6,61,0.00,,---,0.00,VWS V14.01,2013-06-11 02:10:00,
2013-06-10 19:11:00,58.3,44.9,29.91,NNW,338,4.0,4.7,61,0.00,,---,0.00,VWS V14.01,2013-06-11 02:11:00,
2013-06-10 19:17:00,58.6,43.5,29.91,WNW,292,4.3,7.6,57,0.00,,---,0.00,VWS V14.01,2013-06-11 02:17:00,
2013-06-10 19:20:00,59.0,43.8,29.91,WNW,292,3.6,7.6,57,0.00,,---,0.00,VWS V14.01,2013-06-11 02:20:00,
2013-06-10 19:22:00,58.8,44.1,29.91,NNW,338,5.4,7.6,58,0.00,,---,0.00,VWS V14.01,2013-06-11 02:22:00,
2013-06-10 19:27:00,59.2,44.9,29.91,WNW,292,7.4,7.6,59,0.00,,---,0.00,VWS V14.01,2013-06-11 02:27:00,
2013-06-10 19:30:00,59.2,44.0,29.91,WNW,292,8.1,8.1,57,0.00,,---,0.00,VWS V14.01,2013-06-11 02:30:00,
2013-06-10 19:32:00,58.8,43.2,29.91,WNW,292,6.5,8.1,56,0.00,,---,0.00,VWS V14.01,2013-06-11 02:32:00,
2013-06-10 19:38:00,58.8,43.2,29.91,WNW,292,7.2,8.1,56,0.00,,---,0.00,VWS V14.01,2013-06-11 02:38:00,
2013-06-10 19:40:00,58.5,43.3,29.91,NW,315,6.0,8.1,57,0.00,,---,0.00,VWS V14.01,2013-06-11 02:40:00,
2013-06-10 19:43:00,58.5,43.8,29.91,NNW,338,4.9,6.0,58,0.00,,---,0.00,VWS V14.01,2013-06-11 02:43:00,
2013-06-10 19:48:00,57.6,42.9,29.91,NNW,338,5.4,7.8,58,0.00,,---,0.00,VWS V14.01,2013-06-11 02:48:00,
2013-06-10 19:50:00,57.4,42.7,29.91,NNE,22,3.4,7.8,58,0.00,,---,0.00,VWS V14.01,2013-06-11 02:50:00,
2013-06-10 19:53:00,56.7,43.0,29.91,WNW,292,3.8,8.5,60,0.00,,---,0.00,VWS V14.01,2013-06-11 02:53:00,
2013-06-10 19:59:00,55.9,44.0,29.91,NW,315,5.4,8.5,64,0.00,,---,0.00,VWS V14.01,2013-06-11 02:59:00,
2013-06-10 20:00:00,55.9,44.0,29.91,WNW,292,3.6,8.5,64,0.00,,---,0.00,VWS V14.01,2013-06-11 03:00:00,
2013-06-10 20:04:00,55.0,44.3,29.91,NNW,338,5.6,6.3,67,0.00,,---,0.00,VWS V14.01,2013-06-11 03:04:00,
2013-06-10 20:09:00,54.7,44.7,29.94,WNW,292,4.0,6.3,69,0.00,,---,0.00,VWS V14.01,2013-06-11 03:09:00,
2013-06-10 20:10:00,54.7,44.7,29.94,WNW,292,4.0,6.3,69,0.00,,---,0.00,VWS V14.01,2013-06-11 03:10:00,
2013-06-10 20:15:00,54.1,45.0,29.94,WNW,292,3.6,5.8,71,0.00,,---,0.00,VWS V14.01,2013-06-11 03:15:00,
2013-06-10 20:20:00,54.0,44.8,29.94,WNW,292,3.6,3.6,71,0.00,,---,0.00,VWS V14.01,2013-06-11 03:20:00,
2013-06-10 20:25:00,53.6,44.8,29.94,WNW,292,2.9,5.6,72,0.00,,---,0.00,VWS V14.01,2013-06-11 03:25:00,
2013-06-10 20:30:00,53.2,44.8,29.94,WNW,292,4.0,4.0,73,0.00,,---,0.00,VWS V14.01,2013-06-11 03:30:00,
2013-06-10 20:35:00,53.1,45.0,29.94,NW,315,3.8,4.9,74,0.00,,---,0.00,VWS V14.01,2013-06-11 03:35:00,
2013-06-10 20:40:00,52.9,45.2,29.97,WNW,292,5.4,6.3,75,0.00,,---,0.00,VWS V14.01,2013-06-11 03:40:00,
2013-06-10 20:41:00,52.9,45.2,29.97,NNW,338,6.5,6.5,75,0.00,,---,0.00,VWS V14.01,2013-06-11 03:41:00,
2013-06-10 20:46:00,52.5,45.2,29.97,NW,315,2.0,6.5,76,0.00,,---,0.00,VWS V14.01,2013-06-11 03:46:00,
2013-06-10 20:50:00,52.5,45.2,29.97,WNW,292,4.0,6.5,76,0.00,,---,0.00,VWS V14.01,2013-06-11 03:50:00,
2013-06-10 20:51:00,52.5,45.2,29.97,NNW,338,2.9,4.0,76,0.00,,---,0.00,VWS V14.01,2013-06-11 03:51:00,
2013-06-10 20:56:00,52.3,45.3,29.97,NNW,338,4.7,6.0,77,0.00,,---,0.00,VWS V14.01,2013-06-11 03:56:00,
2013-06-10 21:00:00,52.2,45.5,29.97,NNW,338,3.8,6.0,78,0.00,,---,0.00,VWS V14.01,2013-06-11 04:00:00,
2013-06-10 21:01:00,52.0,45.3,29.97,NNW,338,3.4,3.8,78,0.00,,---,0.00,VWS V14.01,2013-06-11 04:01:00,
2013-06-10 21:02:00,52.0,45.3,29.97,WNW,292,4.9,4.9,78,0.00,,---,0.00,VWS V14.01,2013-06-11 04:02:00,
2013-06-10 21:04:00,51.8,45.2,29.97,WNW,292,3.1,4.9,78,0.00,,---,0.00,VWS V14.01,2013-06-11 04:04:00,
2013-06-10 21:09:00,51.6,45.3,29.97,WNW,292,3.6,4.9,79,0.00,,---,0.00,VWS V14.01,2013-06-11 04:09:00,
2013-06-10 21:10:00,51.6,45.3,29.97,WNW,292,3.6,4.9,79,0.00,,---,0.00,VWS V14.01,2013-06-11 04:10:00,
2013-06-10 21:15:00,51.4,45.2,29.97,WNW,292,2.5,3.6,79,0.00,,---,0.00,VWS V14.01,2013-06-11 04:15:00,
2013-06-10 21:20:00,51.4,45.5,29.97,WNW,292,3.8,3.8,80,0.00,,---,0.00,VWS V14.01,2013-06-11 04:20:00,
2013-06-10 21:25:00,51.1,45.1,29.97,WNW,292,3.1,3.8,80,0.00,,---,0.00,VWS V14.01,2013-06-11 04:25:00,
2013-06-10 21:30:00,51.1,45.1,29.97,WNW,292,2.0,2.7,80,0.00,,---,0.00,VWS V14.01,2013-06-11 04:30:00,
2013-06-10 21:36:00,50.9,45.3,29.97,NW,315,2.5,2.9,81,0.00,,---,0.00,VWS V14.01,2013-06-11 04:36:00,
2013-06-10 21:40:00,50.9,45.3,29.97,NW,315,2.2,2.9,81,0.00,,---,0.00,VWS V14.01,2013-06-11 04:40:00,
2013-06-10 21:41:00,50.7,45.1,29.97,NNW,338,1.3,3.6,81,0.00,,---,0.00,VWS V14.01,2013-06-11 04:41:00,
2013-06-10 21:47:00,50.7,45.1,29.97,WNW,292,2.5,3.6,81,0.00,,---,0.00,VWS V14.01,2013-06-11 04:47:00,
2013-06-10 21:50:00,50.5,44.9,29.97,WNW,292,3.4,4.0,81,0.00,,---,0.00,VWS V14.01,2013-06-11 04:50:00,
2013-06-10 21:52:00,50.5,44.9,29.97,WNW,292,1.1,3.4,81,0.00,,---,0.00,VWS V14.01,2013-06-11 04:52:00,
2013-06-10 21:57:00,50.7,45.1,30.00,NW,315,3.8,3.8,81,0.00,,---,0.00,VWS V14.01,2013-06-11 04:57:00,
2013-06-10 22:00:00,50.7,45.4,30.00,WNW,292,3.4,3.8,82,0.00,,---,0.00,VWS V14.01,2013-06-11 05:00:00,
2013-06-10 22:02:00,50.5,45.3,30.00,WNW,292,2.9,3.6,82,0.00,,---,0.00,VWS V14.01,2013-06-11 05:02:00,
2013-06-10 22:08:00,50.5,45.3,30.00,WNW,292,2.7,4.0,82,0.00,,---,0.00,VWS V14.01,2013-06-11 05:08:00,
2013-06-10 22:10:00,50.5,45.3,30.00,WNW,292,4.3,4.3,82,0.00,,---,0.00,VWS V14.01,2013-06-11 05:10:00,
2013-06-10 22:13:00,50.4,45.1,30.00,NW,315,1.3,4.3,82,0.00,,---,0.00,VWS V14.01,2013-06-11 05:13:00,
2013-06-10 22:18:00,50.4,45.4,30.00,NNW,338,2.9,4.3,83,0.00,,---,0.00,VWS V14.01,2013-06-11 05:18:00,
2013-06-10 22:20:00,50.4,45.4,30.00,NNW,338,2.9,4.3,83,0.00,,---,0.00,VWS V14.01,2013-06-11 05:20:00,
2013-06-10 22:23:00,50.4,45.4,30.00,WNW,292,2.5,2.9,83,0.00,,---,0.00,VWS V14.01,2013-06-11 05:23:00,
2013-06-10 22:28:00,50.2,45.2,30.00,NNW,338,2.7,3.1,83,0.00,,---,0.00,VWS V14.01,2013-06-11 05:28:00,
2013-06-10 22:30:00,50.2,45.2,30.00,WNW,292,2.2,3.1,83,0.00,,---,0.00,VWS V14.01,2013-06-11 05:30:00,
2013-06-10 22:33:00,50.2,45.2,30.00,NNW,338,2.7,3.6,83,0.00,,---,0.00,VWS V14.01,2013-06-11 05:33:00,
2013-06-10 22:39:00,50.2,45.2,30.00,WNW,292,2.5,3.6,83,0.00,,---,0.00,VWS V14.01,2013-06-11 05:39:00,
2013-06-10 22:40:00,50.2,45.2,30.00,WNW,292,2.5,3.6,83,0.00,,---,0.00,VWS V14.01,2013-06-11 05:40:00,
2013-06-10 22:44:00,50.0,45.0,30.00,NNW,338,2.9,3.4,83,0.00,,---,0.00,VWS V14.01,2013-06-11 05:44:00,
2013-06-10 22:49:00,50.0,45.0,30.00,NNW,338,2.9,3.6,83,0.00,,---,0.00,VWS V14.01,2013-06-11 05:49:00,
2013-06-10 22:50:00,50.0,45.0,30.00,NNW,338,2.9,3.6,83,0.00,,---,0.00,VWS V14.01,2013-06-11 05:50:00,
2013-06-10 22:54:00,50.0,45.4,30.00,NNW,338,1.6,3.4,84,0.00,,---,0.00,VWS V14.01,2013-06-11 05:54:00,
2013-06-10 23:00:00,50.0,45.4,30.00,WNW,292,2.5,3.4,84,0.00,,---,0.00,VWS V14.01,2013-06-11 06:00:00,
2013-06-10 23:05:00,50.0,45.4,30.00,NW,315,1.3,3.1,84,0.00,,---,0.00,VWS V14.01,2013-06-11 06:05:00,
2013-06-10 23:10:00,50.0,45.4,30.00,WNW,292,4.3,4.3,84,0.00,,---,0.00,VWS V14.01,2013-06-11 06:10:00,
2013-06-10 23:15:00,50.0,45.4,30.00,NNW,338,5.8,5.8,84,0.00,,---,0.00,VWS V14.01,2013-06-11 06:15:00,
2013-06-10 23:20:00,50.2,45.8,30.00,NNW,338,3.4,3.4,85,0.00,,---,0.00,VWS V14.01,2013-06-11 06:20:00,
2013-06-10 23:26:00,50.2,45.8,30.00,WNW,292,2.7,4.0,85,0.00,,---,0.00,VWS V14.01,2013-06-11 06:26:00,
2013-06-10 23:30:00,50.2,45.8,30.00,WNW,292,2.7,4.0,85,0.00,,---,0.00,VWS V14.01,2013-06-11 06:30:00,
2013-06-10 23:32:00,50.4,46.0,30.00,North,0,3.8,4.0,85,0.00,,---,0.00,VWS V14.01,2013-06-11 06:32:00,
2013-06-10 23:37:00,50.4,46.0,30.00,NW,315,2.0,4.0,85,0.00,,---,0.00,VWS V14.01,2013-06-11 06:37:00,
2013-06-10 23:40:00,50.5,46.2,30.00,NNW,338,2.5,4.0,85,0.00,,---,0.00,VWS V14.01,2013-06-11 06:40:00,
2013-06-10 23:42:00,50.5,46.2,30.00,NNW,338,4.0,4.0,85,0.00,,---,0.00,VWS V14.01,2013-06-11 06:42:00,
2013-06-10 23:48:00,50.5,46.5,30.00,NNW,338,2.7,5.8,86,0.00,,---,0.00,VWS V14.01,2013-06-11 06:48:00,
2013-06-10 23:50:00,50.7,46.7,30.00,WNW,292,2.5,6.0,86,0.00,,---,0.00,VWS V14.01,2013-06-11 06:50:00,
2013-06-10 23:53:00,50.7,46.7,30.00,WNW,292,2.9,3.6,86,0.00,,---,0.00,VWS V14.01,2013-06-11 06:53:00,
2013-06-10 23:58:00,50.7,46.7,30.00,NNW,338,2.7,3.6,86,0.00,,---,0.00,VWS V14.01,2013-06-11 06:58:00,